Regional Weather Roundup
Issued by NWS Charleston, SC

Current Version | Previous Version | Graphics & Text | Print | Product List | Glossary On
Versions: 1 2 3 4 5 6 7 8 9 10 11 12 13 14 15 16 17 18 19 20 21 22 23 24 25 26 27 28 29 30 31 32 33 34 35 36 37 38 39 40 41 42 43 44 45 46 47 48 49 50
000 ASUS42 KCHS 172012 RWRCHS REGIONAL WEATHER ROUNDUP NATIONAL WEATHER SERVICE CHARLESTON SC 300 PM EST TUE JAN 17 2017 NOTE: "FAIR" INDICATES FEW OR NO CLOUDS BELOW 12,000 FEET WITH NO SIGNIFICANT WEATHER AND/OR OBSTRUCTIONS TO VISIBILITY. NOT ALL STATIONS ARE QUALITY CONTROLLED. USE DATA WITH CAUTION... ESPECIALLY DEWPOINT OBSERVATIONS. SCZ027-030-031-034>040-042>050-172100- ...SOUTHEAST SOUTH CAROLINA... CITY SKY/WX TMP DP RH WIND PRES REMARKS N CHARLESTON MOSUNNY 77 55 46 SW12 30.17F WATERFRONT PRK N/A 74 61 63 SW5 30.16F MOUNT PLEASANT FAIR 75 61 60 SW10 30.18S JOHNS ISLAND FAIR 75 63 64 S8G15 30.18F PINOPOLIS N/A 57 57 100 E5 30.10F MONCKS CORNER FAIR 73 55 53 SW10 30.18S SUMMERVILLE FAIR 77 61 57 SW6 30.18F BEAUFORT MCAS N/A 76 32 20 S5 30.18F BEAUFORT ARPT FAIR 72 61 68 S5 30.18F HILTON HEAD IS MOSUNNY 75 63 64 SE3 30.20F WALTERBORO CLEAR 75 61 60 SW7 30.19S ALLENDALE FAIR 75 57 53 S6 30.16F ...SOUTHERN MIDLANDS AND PEE DEE... CITY SKY/WX TMP DP RH WIND PRES REMARKS GEORGETOWN FAIR 73 59 60 W7 30.18F KINGSTREE FAIR 68 55 64 SW7 30.18F ORANGEBURG SUNNY 73 57 57 S10 30.16F BARNWELL FAIR 75 57 53 S8 30.16F AIKEN FAIR 73 54 49 S10G17 30.18F MANNING FAIR 68 59 73 S5 30.18F COLUMBIA PTSUNNY 76 54 46 SW10 30.13F SUMTER MOSUNNY 72 57 59 S10 30.13F FLORENCE MOSUNNY 68 58 70 S12 30.16F MYRTLE BEACH SUNNY 70 57 64 S12 30.19 N MYRTLE BEACH SUNNY 71 58 63 S8 30.17F $$ GAZ063-065-086>088-099>101-113>116-118-119-134>141-150-172100- ...SOUTHEAST GEORGIA... CITY SKY/WX TMP DP RH WIND PRES REMARKS SAVANNAH ARPT PTSUNNY 75 56 51 SW10 30.18F HUNTER AAF SUNNY 76 56 50 SW7 30.16F FORT STEWART SUNNY 76 59 56 CALM 30.16F STATESBORO MOSUNNY 76 59 56 SW8 30.18F SYLVANIA CLEAR N/A N/A N/A W7 30.18F CLAXTON FAIR 76 70 80 S3 30.18F ...CSRA...CENTRAL AND FAR SOUTHEAST GEORGIA... CITY SKY/WX TMP DP RH WIND PRES REMARKS THOMSON SUNNY 77 59 53 SW7 30.19F AUGUSTA-BUSH MOSUNNY 80 54 40 SW10 30.14F AUGUSTA-DANIEL SUNNY 76 53 44 SW8G20 30.15F SWAINSBORO MOCLDY 75 55 50 W9 30.18S VIDALIA PTSUNNY 79 61 53 S10G17 30.17F EASTMAN FAIR 79 42 26 SW5 30.19S HAZLEHURST FAIR 79 60 52 SW8 30.16F ALMA SUNNY 78 57 48 SW12 30.18F WAYCROSS PTSUNNY 80 62 52 W7 30.18F JESUP MOCLDY 79 55 44 SW6 30.19F BAXLEY PTSUNNY 77 61 57 W6 30.18F BRUNSWICK MOSUNNY 77 61 57 SW7 30.20F SAINT SIMONS MOSUNNY 71 60 68 SE7 30.19F $$ SCZ027-028-034-036>038-045-046-048>050-GAZ119-141-172100- ...LAKE AND SUPPLEMENTAL COASTAL OBSERVATIONS... STATION/POSITION TIME TEMP WIND PRES WAVE SWELL AIR SEA DIR/SP/G HT/PER HT/PER/DIR (UTC) (F) (DEG/KT/KT) (MB) (FT/S) (FT/S/D) WINYAH BAY NOT AVBL LAKE MURRAY 1920 67 210/ 3/ 5 1020.3F ACE BASIN NERRS 1845 72 210/ 2 1023.0 FORT PULASKI 1948 170/ 5/ 6 1022.5F SAPELO ISLAND 1900 72 240/ 6 1023.0 $$ ANZ835-935-AMZ111-154-330-350-352-354-370-450-454-472-172100- ...C-MAN AND BUOY OBSERVATIONS... STATION/POSITION TIME TEMP WIND PRES WAVE SWELL AIR SEA DIR/SP/G HT/PER HT/PER/DIR (UTC) (F) (DEG/KT/KT) (MB) (FT/S) (FT/S/D) BUOY 41004 1850 70 71 260/ 6/ 6 1022.5 2/ 8 2/120/ 8 BUOY 41008 1950 60 61 10/ 2/ 2 1022.5F 2/ 5 2/100/ 5 FOLLY BEACH CMAN 1900 61 200/ 6/ 7 1023.2F CAPERS NEARSHORE 1908 57 55 210/ 4/ 6 1022.3F FRIPP NEARSHORE 1908 60 57 130/ 2/ 4 1022.5F STATION/POSITION TIME TEMP WIND PRES WAVE SWELL AIR SEA DIR/SP/G HT/PER HT/PER/DIR (UTC) (F) (DEG/KT/KT) (MB) (FT/S) (FT/S/D) 5E ST. MARYS GA 1930 62 N/A 2/11 FRYING PAN BUOY 1950 71 72 250/ 10/ 14 1022.0F 2/ 8 2/120/ 8 BUOY 41025 1950 64 73 200/ 4/ 6 1021.4F 2/ 8 2/ 90/ 8 CAPE LOOKOUT NC 1900 62 60/ 3/ 4 1021.6F BUOY 41002 1950 72 72 220/ 12/ 14 1023.7F 3/ 8 2/120/ 8 BUOY 41010 NOT AVBL ST AUGUSTINE FL 2000 67 65 120/ 8/ 8 1023.6F $$

USA.gov is the U.S. government's official web portal to all federal, state and local government web resources and services.